AVA5325 SKPE-SKBO

Flight info

Callsign AVA5325
Flight time 0h 25m
Altitude 20000
Route TOLIM1D TOLIM TOLIM4E
Aircraft A320/M-SDE3FGHIRWY/LB1

Departure

Time 2026-05-07 21:43
Airport Matecaña International Airport (SKPE)

Arrival

Time 2026-05-07 22:08
Airport El Dorado International Airport (SKBO)
Time Latitude Longitude Altitude Speed Heading
2026-05-07 21:19 4.81502 -75.73713 4427 ft 0 kts 342°
2026-05-07 21:34 4.81484 -75.73708 4428 ft 4 kts 355°
2026-05-07 21:34 4.81459 -75.73711 4429 ft 4 kts 35°
2026-05-07 21:34 4.81447 -75.73724 4427 ft 0 kts 73°
2026-05-07 21:40 4.81448 -75.73721 4428 ft 3 kts 73°
2026-05-07 21:40 4.81460 -75.73685 4430 ft 7 kts 71°
2026-05-07 21:40 4.81491 -75.73589 4430 ft 17 kts 72°
2026-05-07 21:40 4.81511 -75.73504 4428 ft 11 kts 98°
2026-05-07 21:41 4.81465 -75.73469 4429 ft 8 kts 159°
2026-05-07 21:41 4.81447 -75.73409 4429 ft 16 kts 71°
2026-05-07 21:41 4.81482 -75.73302 4428 ft 16 kts 71°
2026-05-07 21:41 4.81514 -75.73202 4428 ft 14 kts 73°
2026-05-07 21:42 4.81546 -75.73111 4428 ft 14 kts 57°
2026-05-07 21:42 4.81571 -75.73048 4428 ft 2 kts 152°
2026-05-07 21:42 4.81567 -75.73056 4429 ft 3 kts 237°
2026-05-07 21:42 4.81547 -75.73097 4429 ft 14 kts 248°
2026-05-07 21:43 4.81430 -75.73461 4429 ft 97 kts 252°
2026-05-07 21:43 4.81144 -75.74346 4471 ft 162 kts 252°
2026-05-07 21:43 4.80772 -75.75491 5185 ft 175 kts 253°
2026-05-07 21:43 4.80426 -75.76565 6124 ft 169 kts 253°
2026-05-07 21:44 4.80051 -75.77725 6518 ft 183 kts 253°
2026-05-07 21:44 4.79645 -75.78982 6880 ft 195 kts 253°
2026-05-07 21:44 4.79221 -75.80288 7434 ft 198 kts 253°
2026-05-07 21:44 4.78753 -75.81588 7992 ft 200 kts 242°
2026-05-07 21:45 4.77684 -75.82473 8528 ft 211 kts 200°
2026-05-07 21:45 4.76134 -75.82507 8752 ft 239 kts 172°
2026-05-07 21:45 4.74469 -75.82036 8966 ft 264 kts 164°
2026-05-07 21:45 4.72666 -75.81361 9294 ft 288 kts 161°
2026-05-07 21:46 4.70757 -75.80621 9831 ft 299 kts 163°
2026-05-07 21:46 4.68755 -75.79996 9965 ft 300 kts 168°
2026-05-07 21:46 4.66731 -75.79515 9988 ft 299 kts 171°
2026-05-07 21:46 4.64693 -75.79115 9988 ft 298 kts 172°
2026-05-07 21:47 4.62609 -75.78786 10180 ft 314 kts 175°
2026-05-07 21:47 4.61132 -75.78590 10363 ft 330 kts 175°
2026-05-07 21:47 4.58812 -75.78300 10905 ft 341 kts 175°
2026-05-07 21:47 4.56436 -75.78003 11623 ft 346 kts 175°
2026-05-07 21:48 4.54025 -75.77690 12348 ft 350 kts 175°
2026-05-07 21:48 4.51600 -75.77351 13056 ft 355 kts 172°
2026-05-07 21:48 4.49231 -75.76593 13733 ft 363 kts 156°
2026-05-07 21:48 4.47097 -75.75199 14387 ft 370 kts 140°
2026-05-07 21:49 4.45379 -75.73260 15026 ft 376 kts 124°
2026-05-07 21:49 4.44223 -75.70906 15647 ft 381 kts 109°
2026-05-07 21:49 4.43420 -75.68354 16257 ft 385 kts 108°
2026-05-07 21:49 4.42619 -75.65775 16847 ft 389 kts 108°
2026-05-07 21:50 4.41808 -75.63171 17347 ft 395 kts 108°
2026-05-07 21:50 4.41042 -75.60717 17758 ft 399 kts 108°
2026-05-07 21:50 4.40264 -75.58230 18143 ft 404 kts 108°
2026-05-07 21:50 4.39468 -75.55685 18466 ft 407 kts 108°
2026-05-07 21:51 4.38791 -75.52916 18872 ft 410 kts 98°
2026-05-07 21:51 4.38722 -75.50094 19422 ft 410 kts 84°
2026-05-07 21:51 4.39260 -75.47283 19863 ft 411 kts 72°
2026-05-07 21:51 4.40350 -75.44648 19983 ft 406 kts 60°
2026-05-07 21:52 4.41724 -75.42211 20005 ft 399 kts 59°
2026-05-07 21:52 4.43089 -75.39786 20011 ft 398 kts 59°
2026-05-07 21:52 4.44438 -75.37374 20006 ft 397 kts 59°
2026-05-07 21:52 4.45766 -75.34989 20008 ft 396 kts 60°
2026-05-07 21:53 4.47107 -75.32571 20009 ft 397 kts 60°
2026-05-07 21:53 4.48453 -75.30144 20007 ft 397 kts 60°
2026-05-07 21:53 4.49790 -75.27734 20009 ft 396 kts 60°
2026-05-07 21:53 4.51131 -75.25319 20009 ft 397 kts 60°
2026-05-07 21:54 4.52476 -75.22894 20002 ft 399 kts 60°
2026-05-07 21:54 4.53828 -75.20453 20001 ft 400 kts 60°
2026-05-07 21:54 4.55180 -75.18020 20005 ft 400 kts 60°
2026-05-07 21:54 4.56533 -75.15587 20006 ft 400 kts 60°
2026-05-07 21:55 4.57886 -75.13154 20007 ft 399 kts 60°
2026-05-07 21:55 4.59241 -75.10716 20014 ft 399 kts 60°
2026-05-07 21:55 4.60589 -75.08289 20034 ft 398 kts 60°
2026-05-07 21:55 4.61934 -75.05869 20037 ft 398 kts 60°
2026-05-07 21:56 4.63281 -75.03444 20039 ft 397 kts 59°
2026-05-07 21:56 4.64624 -75.01028 20036 ft 396 kts 60°
2026-05-07 21:56 4.65961 -74.98618 20037 ft 395 kts 60°
2026-05-07 21:56 4.67290 -74.96218 20035 ft 394 kts 60°
2026-05-07 21:57 4.68615 -74.93831 20012 ft 386 kts 60°
2026-05-07 21:57 4.69902 -74.91511 19815 ft 377 kts 59°
2026-05-07 21:57 4.71171 -74.89224 19453 ft 372 kts 60°
2026-05-07 21:57 4.72424 -74.86966 19036 ft 370 kts 59°
2026-05-07 21:58 4.73668 -74.84723 18627 ft 367 kts 59°
2026-05-07 21:58 4.74965 -74.82533 18255 ft 363 kts 56°
2026-05-07 21:58 4.76169 -74.80323 18004 ft 360 kts 64°
2026-05-07 21:58 4.77089 -74.78161 17781 ft 358 kts 68°
2026-05-07 21:59 4.77951 -74.75828 17523 ft 357 kts 69°
2026-05-07 21:59 4.78776 -74.73488 17267 ft 356 kts 70°
2026-05-07 21:59 4.79611 -74.71153 17021 ft 355 kts 69°
2026-05-07 21:59 4.80469 -74.68836 16772 ft 353 kts 68°
2026-05-07 22:00 4.81345 -74.66549 16389 ft 351 kts 68°
2026-05-07 22:00 4.82242 -74.64266 15952 ft 351 kts 67°
2026-05-07 22:00 4.83150 -74.61990 15511 ft 351 kts 67°
2026-05-07 22:00 4.84064 -74.59715 15078 ft 352 kts 67°
2026-05-07 22:01 4.84922 -74.57581 14681 ft 352 kts 67°
2026-05-07 22:01 4.85830 -74.55309 14308 ft 349 kts 67°
2026-05-07 22:01 4.86732 -74.53043 13859 ft 348 kts 67°
2026-05-07 22:01 4.87624 -74.50794 13444 ft 347 kts 67°
2026-05-07 22:02 4.88514 -74.48552 13168 ft 342 kts 67°
2026-05-07 22:02 4.89380 -74.46364 13032 ft 332 kts 67°
2026-05-07 22:02 4.90104 -74.44202 12912 ft 324 kts 82°
2026-05-07 22:02 4.89979 -74.41998 12743 ft 315 kts 110°
2026-05-07 22:03 4.88935 -74.40234 12683 ft 301 kts 133°
2026-05-07 22:03 4.87656 -74.38798 12683 ft 287 kts 132°
2026-05-07 22:03 4.86443 -74.37281 12693 ft 270 kts 129°
2026-05-07 22:03 4.85350 -74.35820 12710 ft 253 kts 129°
2026-05-07 22:04 4.84384 -74.34533 12584 ft 240 kts 129°
2026-05-07 22:04 4.83380 -74.33206 12297 ft 237 kts 129°
2026-05-07 22:04 4.82394 -74.31904 11987 ft 230 kts 129°
2026-05-07 22:04 4.81498 -74.30722 11708 ft 224 kts 129°
2026-05-07 22:05 4.80572 -74.29496 11419 ft 218 kts 129°
2026-05-07 22:05 4.79665 -74.28298 11132 ft 214 kts 129°
2026-05-07 22:05 4.78776 -74.27123 10858 ft 209 kts 129°
2026-05-07 22:05 4.77902 -74.25969 10565 ft 202 kts 129°
2026-05-07 22:06 4.77132 -74.24950 10342 ft 190 kts 129°
2026-05-07 22:06 4.76398 -74.23981 10102 ft 182 kts 129°
2026-05-07 22:06 4.75632 -74.22969 9855 ft 179 kts 130°
2026-05-07 22:06 4.74882 -74.21980 9606 ft 177 kts 129°
2026-05-07 22:07 4.74141 -74.21001 9392 ft 176 kts 129°
2026-05-07 22:07 4.73405 -74.20029 9149 ft 174 kts 129°
2026-05-07 22:07 4.72671 -74.19059 8923 ft 173 kts 129°
2026-05-07 22:07 4.71936 -74.18088 8693 ft 172 kts 129°
2026-05-07 22:08 4.71217 -74.17139 8463 ft 171 kts 129°
2026-05-07 22:08 4.70563 -74.16273 8369 ft 159 kts 128°
2026-05-07 22:08 4.70101 -74.15661 8364 ft 99 kts 127°
2026-05-07 22:08 4.69883 -74.15372 8366 ft 36 kts 127°
2026-05-07 22:09 4.69779 -74.15233 8365 ft 15 kts 126°
2026-05-07 22:09 4.69736 -74.15139 8365 ft 15 kts 104°